Wind_Speed
27 25 16 10 4 7 27 23 11 13 14 27 16 16 17 24 8 4 8 25 21 19 31 37 36 35 34 34 32 32 31 30 28 25 25 24 23 21 21 18 16 14 15 14 17 18 19 16 14
21 25 16 9 9 15 34 21 20 15 10 28 29 20 7 17 20 3 7 20 26 23 23 37 38 37 35 36 35 34 33 31 29 27 27 26 23 21 19 19 16 14 14 14 18 16 14 14 15
22 27 11 4 12 31 23 15 20 12 21 15 18 19 17 7 27 12 7 10 18 27 30 38 38 38 38 37 37 36 35 33 31 29 28 26 23 22 20 18 16 15 15 16 15 15 14 14 16
22 24 15 12 29 42 31 6 18 13 23 23 13 9 21 20 13 31 11 8 10 24 36 41 41 40 41 39 37 37 37 34 32 30 29 26 25 22 21 18 17 16 16 16 16 18 15 16 17
30 11 12 21 40 41 21 23 10 18 20 21 16 8 4 32 20 21 32 19 8 17 37 43 42 41 41 40 39 37 37 36 34 32 29 28 25 24 21 18 17 17 18 16 17 18 16 16 17
11 15 11 27 36 33 28 18 27 19 26 23 16 14 8 16 31 22 22 26 21 12 20 39 41 41 41 41 41 39 37 35 35 34 31 30 28 25 21 19 18 19 19 18 18 20 19 18 18
7 11 17 28 32 30 28 30 13 17 21 23 25 15 17 24 26 36 27 23 22 21 19 28 36 40 41 42 42 40 38 36 36 33 33 33 29 25 22 20 20 21 21 21 20 20 19 19 18
13 8 12 22 25 39 28 28 32 20 16 19 24 13 18 33 22 23 22 21 22 24 25 30 33 38 41 42 43 41 40 39 36 34 34 32 29 25 22 22 22 23 23 22 20 20 20 20 19
19 6 16 20 32 23 22 21 33 36 20 29 32 24 19 30 29 24 24 26 24 28 30 32 35 38 44 43 44 42 42 41 38 35 35 33 30 26 24 24 24 25 24 23 21 21 20 21 19
7 10 20 13 19 23 20 19 24 18 25 24 32 40 28 24 31 32 30 31 32 31 31 34 35 40 45 46 46 48 46 44 40 39 38 34 29 26 26 26 27 27 26 24 23 21 22 21 21
9 5 9 16 18 27 21 22 25 23 24 39 44 34 33 33 31 30 34 36 34 33 31 34 35 36 44 47 48 59 52 47 43 42 39 32 29 29 29 30 30 29 28 26 26 24 21 21 20
9 18 20 15 27 19 15 29 26 32 34 35 39 39 35 40 45 41 38 38 38 38 37 37 36 37 41 47 42 60 55 53 48 43 38 33 32 32 32 32 32 32 30 27 24 24 24 23 21
14 18 19 23 25 25 19 18 28 21 39 15 36 39 40 47 52 49 41 38 36 39 37 40 39 39 37 42 45 50 54 55 50 45 39 34 33 33 33 33 33 32 31 27 27 26 26 24 23
13 18 22 23 23 25 21 23 18 15 24 27 28 37 45 49 51 48 46 42 40 38 38 39 40 38 36 39 37 51 52 56 48 44 39 35 34 34 35 35 34 33 31 29 27 27 26 24 22
16 15 15 16 19 19 11 27 20 28 24 29 32 32 38 43 48 51 50 49 44 38 34 40 39 40 36 36 37 42 64 55 48 45 40 35 36 36 36 36 36 34 32 30 30 28 26 25 24
6 7 12 10 11 12 15 29 19 18 22 24 31 29 35 42 43 44 46 46 45 46 44 41 45 43 40 36 31 44 48 54 50 44 40 37 37 37 38 38 37 37 34 33 32 30 29 25 24
5 10 18 19 15 16 13 13 11 21 23 32 27 28 25 35 39 41 41 42 42 42 41 41 40 40 39 37 40 39 59 57 51 44 45 40 40 39 39 39 38 38 35 34 32 31 28 27 25
10 8 14 17 8 13 16 20 15 23 20 18 37 29 17 26 38 42 38 38 42 39 35 34 33 41 39 33 38 46 59 58 49 49 49 44 43 41 41 40 39 38 37 35 33 30 29 26 25
15 17 19 18 20 15 16 16 15 18 17 11 22 24 26 20 25 37 37 37 41 37 29 28 28 38 37 33 35 46 51 55 56 52 56 47 45 43 42 41 40 38 37 36 33 32 30 29 25
15 15 19 20 19 14 16 18 16 15 16 13 22 24 19 26 24 31 34 33 34 36 31 27 23 28 41 39 38 42 45 52 53 61 57 49 44 43 43 42 41 40 39 36 34 34 34 29 27
13 16 16 18 14 13 14 16 15 16 17 20 22 18 12 3 22 29 31 33 34 32 31 26 19 19 31 36 39 41 42 53 52 53 50 39 41 43 43 43 41 41 38 37 35 34 31 31 30
14 14 20 19 9 5 5 5 13 15 12 15 16 24 29 18 16 26 29 34 35 33 31 26 18 19 28 31 39 38 41 51 56 46 46 44 39 40 42 41 40 40 38 37 35 33 30 27 26
10 12 14 14 14 5 17 7 4 16 12 13 15 21 24 26 16 6 22 34 35 33 29 29 30 29 30 36 36 40 42 42 40 45 48 46 43 42 41 40 41 40 38 36 34 33 31 28 25
11 6 11 16 10 6 13 6 4 2 7 9 17 19 25 27 30 15 14 22 24 30 34 34 31 26 29 36 37 43 38 45 46 54 52 51 46 42 42 42 41 40 38 36 34 33 31 29 26
10 3 1 2 5 4 10 8 5 11 12 13 15 22 21 9 21 28 13 15 18 26 35 39 27 27 34 34 37 39 39 37 38 52 54 54 53 50 47 44 43 41 37 35 36 34 32 30 28
10 5 2 5 4 4 13 7 3 11 13 19 20 22 22 19 10 15 17 14 22 26 28 33 31 30 30 34 34 33 31 40 38 49 51 48 53 53 48 44 43 41 39 37 35 33 32 30 29
6 5 3 1 2 3 5 5 5 15 17 17 21 27 25 23 17 12 10 12 10 25 29 27 28 27 33 32 29 33 32 41 42 51 47 44 46 49 48 46 45 41 38 37 36 36 34 33 32
5 9 4 1 1 3 4 4 4 15 17 16 18 21 27 25 23 17 12 5 5 9 25 27 29 28 28 28 27 30 27 29 32 46 50 52 47 42 46 46 44 42 40 40 39 38 36 36 35
9 6 5 4 2 4 4 2 8 11 13 14 14 20 23 25 22 17 13 7 4 4 16 22 26 27 26 26 27 29 25 26 25 30 34 40 47 40 38 44 43 40 37 35 36 36 37 37 36
8 6 4 2 4 1 2 3 9 11 11 14 17 21 23 23 22 20 14 11 12 8 8 18 22 24 29 29 30 30 28 25 24 26 24 29 29 31 28 42 39 38 37 36 33 33 35 38 39
Wind_Direction
220 218 230 226 210 233 246 227 221 181 191 205 192 192 201 198 170 211 197 187 181 179 187 185 184 187 187 187 182 180 180 178 174 171 167 170 174 177 170 167 159 157 156 156 146 143 140 138 151
223 220 219 197 231 229 241 225 219 204 189 192 209 200 185 212 209 206 193 196 192 190 192 189 186 187 189 187 186 183 182 180 178 177 174 176 176 175 177 169 165 164 165 161 146 145 143 154 138
215 212 209 218 220 229 240 203 213 189 196 184 199 211 205 199 210 202 196 198 196 185 190 192 190 188 191 189 189 186 185 183 181 180 178 182 174 181 179 174 172 169 171 165 165 155 162 143 140
215 200 235 221 232 236 229 174 190 181 198 202 173 196 221 206 196 206 204 178 195 194 189 190 192 191 191 191 190 189 187 186 186 186 185 189 176 185 185 182 176 172 175 172 162 156 153 144 142
224 190 216 228 231 241 232 230 211 189 186 199 188 201 208 210 208 204 215 225 201 192 193 190 192 192 193 191 192 191 190 190 189 189 188 185 181 186 192 183 178 174 175 176 164 160 147 147 142
259 202 201 222 231 239 238 233 224 205 198 191 199 211 220 203 201 192 197 220 231 211 199 197 194 194 196 194 193 193 192 192 191 188 187 184 183 191 192 184 178 174 174 171 164 155 152 150 143
253 256 226 220 223 236 234 220 215 205 203 214 210 220 228 223 208 209 224 223 227 219 206 196 205 200 200 197 196 195 194 193 191 190 186 185 190 194 190 184 177 174 172 171 166 157 154 151 142
265 238 241 221 224 233 224 210 218 198 213 213 201 213 210 209 189 191 202 220 222 221 209 205 204 209 204 201 198 195 194 194 191 190 184 181 190 192 192 182 176 173 172 173 168 161 155 149 144
272 272 230 231 228 226 223 215 211 217 214 213 218 225 212 214 220 211 214 221 217 216 213 206 212 214 209 205 199 199 196 193 189 187 183 186 190 189 187 181 175 173 173 173 168 163 155 149 145
257 253 259 265 249 246 240 219 209 198 208 212 223 223 219 216 229 230 226 222 226 220 222 211 211 214 211 207 201 197 195 191 192 187 187 191 191 190 182 179 175 173 174 173 168 164 159 154 150
257 275 324 288 300 304 271 242 215 207 210 212 213 212 213 216 225 229 230 229 225 228 224 212 212 215 212 213 205 186 194 188 194 191 192 190 191 186 182 177 176 173 176 172 170 165 158 155 153
275 272 274 287 301 304 301 322 228 208 214 222 222 223 218 221 230 230 230 230 227 231 223 218 216 210 216 216 203 193 195 191 197 194 192 190 191 186 185 181 179 178 179 174 165 161 158 160 156
267 281 292 289 289 284 297 292 278 257 225 216 215 219 219 226 232 232 228 228 231 228 222 217 219 213 211 217 218 194 194 194 196 193 191 192 192 189 185 183 181 180 179 172 166 166 162 163 159
262 276 284 295 290 286 274 282 290 256 258 226 226 213 220 224 228 230 226 228 230 229 224 215 214 214 216 219 215 192 211 196 196 195 192 193 194 189 186 184 182 181 177 172 171 169 165 165 163
261 289 295 283 276 264 267 280 248 241 259 229 245 227 224 226 228 229 231 233 228 224 225 217 213 217 218 216 219 207 197 197 198 196 195 195 195 191 187 185 182 180 177 175 172 169 168 168 166
273 290 288 292 300 258 189 265 282 287 232 241 225 219 216 225 231 232 232 236 233 230 231 228 221 221 225 218 218 217 218 209 202 201 199 198 196 193 188 186 183 180 179 177 175 173 171 171 171
210 267 265 284 261 251 198 268 257 260 253 222 231 226 216 222 229 235 234 235 231 227 228 228 222 217 216 211 217 218 208 211 207 205 202 200 197 192 191 187 184 182 180 178 177 175 177 173 172
244 235 263 270 271 296 244 243 255 284 270 225 218 220 212 225 234 237 236 233 225 225 230 224 217 213 218 223 226 217 213 221 206 207 205 200 196 192 190 187 186 184 183 180 179 179 176 177 177
249 258 269 272 279 302 286 276 251 246 256 279 222 212 214 230 244 240 234 228 222 221 216 212 212 214 207 196 195 198 203 208 200 208 207 198 195 192 190 188 188 186 187 184 181 179 180 178 180
239 250 263 273 259 251 265 266 269 244 249 238 267 212 207 224 237 236 227 221 217 214 209 206 207 213 210 211 213 218 213 221 215 202 213 195 194 192 191 191 189 190 189 187 185 187 181 184 182
237 237 259 258 288 281 276 268 238 243 238 236 255 229 171 233 224 224 219 213 204 198 200 207 205 212 214 214 215 210 209 203 207 210 194 190 201 195 193 193 192 193 191 190 190 191 194 187 184
251 231 239 241 263 260 199 297 205 213 218 223 236 199 225 250 279 218 215 205 191 189 201 205 206 220 222 220 218 218 217 205 204 198 184 183 200 201 197 195 196 196 195 195 195 195 196 199 194
245 242 219 229 232 254 270 259 263 181 203 220 224 199 193 211 249 233 221 208 206 201 201 221 215 219 228 224 220 219 217 212 205 183 184 184 198 204 202 198 198 199 199 198 199 199 199 201 204
245 261 241 236 221 226 226 232 57 36 1 352 342 309 191 186 206 268 227 218 213 204 203 210 204 211 217 215 219 214 216 210 193 184 183 190 195 206 203 201 202 201 203 203 202 204 206 205 205
221 177 225 122 192 232 210 212 50 28 22 6 354 15 26 160 190 212 258 200 217 203 200 205 210 215 214 212 215 220 217 210 197 188 189 193 195 199 203 202 202 203 204 205 207 208 209 210 211
288 204 189 184 169 194 150 180 72 28 29 17 13 16 24 34 77 167 212 190 191 196 201 201 210 217 219 218 220 217 230 212 198 197 195 203 203 200 201 201 202 204 206 209 210 213 214 215 217
329 177 271 156 264 132 123 109 122 22 21 12 12 14 10 17 23 60 135 180 170 184 194 200 216 218 220 220 223 226 225 218 208 204 203 206 208 198 198 202 203 203 207 210 215 215 217 219 221
358 341 8 320 120 186 91 76 26 5 5 4 10 6 1 6 20 29 53 102 195 174 183 193 200 207 213 228 226 235 218 224 218 214 204 206 200 203 201 202 206 204 206 211 215 217 218 222 225
5 5 345 272 245 196 137 94 21 5 7 3 3 6 1 6 14 21 39 50 135 157 178 182 198 202 214 229 227 231 218 218 216 216 210 215 207 203 215 205 207 209 211 216 219 222 223 226 227
82 347 341 317 334 18 63 100 7 4 10 14 5 4 7 9 14 18 21 46 81 101 152 173 188 195 208 208 221 226 216 214 220 211 198 201 195 216 223 212 210 213 215 217 219 225 228 228 230
Height
1490 1492 1495 1501 1506 1487 1454 1441 1457 1464 1470 1471 1473 1477 1476 1478 1481 1487 1476 1478 1484 1487 1490 1494 1500 1506 1511 1515 1519 1524 1529 1532 1535 1538 1540 1543 1546 1548 1549 1551 1554 1556 1558 1559 1560 1561 1564 1564 1565
1485 1489 1490 1492 1488 1475 1400 1451 1452 1458 1462 1465 1471 1473 1474 1472 1474 1475 1475 1476 1479 1484 1487 1491 1496 1502 1508 1513 1517 1521 1526 1531 1534 1538 1540 1542 1545 1547 1550 1552 1554 1557 1559 1559 1560 1560 1562 1563 1565
1480 1484 1486 1479 1471 1437 1422 1437 1448 1457 1460 1462 1466 1469 1470 1465 1471 1473 1475 1475 1478 1480 1484 1489 1493 1498 1505 1511 1516 1519 1524 1528 1532 1536 1539 1541 1544 1547 1549 1552 1554 1556 1559 1559 1560 1561 1562 1564 1566
1474 1479 1479 1465 1437 1402 1423 1434 1439 1451 1455 1457 1459 1463 1458 1464 1464 1470 1473 1475 1477 1479 1482 1486 1490 1495 1501 1508 1513 1518 1521 1526 1530 1534 1538 1541 1543 1546 1548 1551 1554 1555 1558 1559 1560 1561 1562 1565 1566
1465 1459 1460 1446 1424 1409 1428 1436 1442 1441 1447 1453 1455 1451 1453 1456 1462 1466 1469 1473 1475 1477 1480 1485 1488 1493 1499 1503 1510 1516 1520 1524 1527 1531 1535 1539 1541 1544 1547 1550 1553 1555 1557 1559 1560 1561 1562 1566 1567
1450 1440 1436 1430 1417 1421 1426 1436 1438 1441 1442 1446 1449 1452 1452 1452 1458 1464 1467 1471 1473 1477 1479 1485 1488 1492 1497 1501 1506 1512 1517 1521 1525 1528 1531 1535 1538 1542 1545 1549 1552 1554 1556 1559 1561 1561 1562 1565 1567
1444 1428 1420 1417 1414 1413 1415 1434 1435 1437 1440 1440 1442 1447 1449 1451 1454 1460 1464 1467 1471 1474 1477 1483 1488 1491 1495 1498 1502 1508 1514 1519 1523 1526 1529 1532 1535 1540 1544 1547 1550 1552 1554 1558 1561 1562 1563 1566 1568
1441 1431 1416 1419 1413 1394 1413 1422 1432 1433 1434 1442 1442 1437 1441 1447 1452 1456 1459 1463 1467 1471 1475 1481 1484 1488 1492 1496 1501 1505 1510 1516 1520 1524 1527 1530 1533 1537 1541 1545 1549 1551 1553 1557 1561 1562 1564 1567 1569
1440 1432 1409 1412 1411 1399 1407 1417 1420 1429 1434 1432 1433 1433 1435 1444 1447 1450 1454 1457 1461 1467 1471 1477 1481 1486 1490 1493 1497 1502 1507 1513 1518 1522 1525 1529 1531 1535 1539 1543 1547 1550 1552 1556 1560 1561 1564 1566 1570
1436 1422 1411 1414 1414 1409 1412 1412 1418 1424 1425 1428 1426 1425 1432 1437 1441 1444 1448 1453 1456 1460 1466 1472 1476 1481 1485 1490 1493 1496 1504 1509 1513 1517 1522 1524 1530 1533 1537 1542 1546 1549 1551 1556 1559 1562 1564 1566 1569
1434 1422 1422 1416 1418 1417 1408 1409 1412 1412 1417 1409 1406 1417 1424 1432 1435 1439 1442 1446 1449 1456 1462 1466 1471 1476 1481 1485 1488 1476 1497 1502 1509 1513 1516 1522 1527 1531 1535 1539 1544 1547 1549 1554 1556 1561 1565 1567 1569
1434 1423 1426 1418 1421 1419 1415 1413 1400 1402 1395 1404 1411 1415 1421 1426 1428 1431 1436 1440 1445 1449 1456 1460 1466 1469 1476 1481 1482 1475 1483 1493 1503 1508 1513 1517 1522 1527 1532 1536 1541 1544 1547 1552 1557 1560 1563 1568 1569
1428 1422 1418 1417 1414 1412 1416 1413 1411 1395 1398 1400 1404 1409 1413 1418 1419 1425 1431 1436 1440 1443 1448 1454 1460 1465 1471 1476 1478 1470 1478 1489 1495 1504 1509 1512 1519 1524 1529 1535 1539 1544 1547 1551 1555 1559 1562 1568 1569
1423 1420 1416 1414 1411 1406 1405 1406 1409 1393 1392 1394 1400 1400 1404 1408 1410 1418 1424 1428 1432 1438 1442 1449 1454 1460 1465 1471 1474 1467 1478 1483 1492 1500 1505 1508 1515 1520 1525 1531 1537 1543 1547 1550 1554 1558 1561 1566 1569
1420 1418 1414 1412 1410 1401 1399 1387 1390 1389 1389 1390 1391 1395 1398 1401 1406 1409 1415 1420 1427 1432 1437 1443 1450 1455 1460 1465 1470 1474 1467 1479 1489 1495 1500 1505 1512 1517 1522 1528 1534 1541 1546 1549 1552 1557 1561 1564 1568
1418 1419 1414 1402 1404 1399 1397 1377 1376 1371 1379 1384 1387 1390 1392 1395 1397 1404 1410 1415 1420 1426 1429 1436 1443 1449 1455 1458 1465 1469 1470 1476 1484 1491 1495 1501 1509 1514 1519 1525 1532 1538 1542 1547 1551 1554 1559 1563 1568
1418 1418 1411 1404 1396 1390 1390 1379 1374 1376 1376 1378 1381 1384 1385 1389 1393 1397 1403 1408 1414 1419 1424 1430 1435 1442 1448 1455 1458 1466 1469 1471 1479 1483 1492 1497 1506 1509 1516 1522 1529 1535 1539 1545 1549 1553 1558 1561 1566
1412 1412 1405 1400 1391 1385 1382 1372 1377 1375 1375 1370 1374 1377 1379 1384 1386 1392 1397 1402 1410 1415 1421 1426 1430 1436 1443 1447 1450 1459 1465 1470 1465 1479 1486 1493 1501 1506 1511 1519 1526 1532 1537 1542 1547 1551 1557 1561 1565
1403 1402 1402 1396 1393 1390 1381 1375 1373 1373 1371 1366 1362 1370 1373 1379 1385 1389 1392 1398 1404 1411 1418 1422 1426 1430 1435 1441 1447 1450 1455 1460 1458 1471 1480 1488 1496 1502 1509 1515 1522 1529 1536 1540 1544 1549 1555 1559 1564
1399 1402 1399 1391 1386 1387 1380 1374 1372 1368 1364 1365 1368 1365 1369 1378 1381 1384 1388 1393 1398 1405 1411 1417 1422 1427 1431 1436 1442 1448 1451 1455 1460 1464 1476 1483 1494 1502 1507 1511 1517 1525 1532 1537 1541 1546 1549 1557 1561
1396 1398 1391 1393 1387 1380 1377 1367 1361 1357 1358 1358 1362 1364 1368 1372 1378 1381 1385 1388 1395 1400 1406 1411 1416 1423 1427 1431 1434 1440 1445 1448 1455 1462 1465 1480 1496 1503 1505 1510 1513 1522 1529 1534 1538 1544 1548 1551 1557
1394 1384 1384 1383 1388 1384 1371 1365 1346 1350 1351 1354 1356 1358 1362 1371 1378 1377 1381 1384 1389 1394 1401 1408 1413 1417 1421 1423 1429 1433 1437 1441 1448 1459 1469 1478 1493 1501 1504 1507 1512 1520 1525 1530 1535 1542 1547 1551 1554
1381 1373 1376 1378 1380 1387 1372 1365 1342 1343 1347 1349 1351 1355 1358 1366 1369 1371 1377 1382 1387 1390 1398 1405 1411 1415 1417 1421 1425 1431 1436 1442 1444 1452 1467 1475 1489 1497 1502 1503 1511 1517 1522 1527 1532 1538 1542 1548 1553
1373 1374 1373 1371 1374 1375 1364 1359 1361 1361 1377 1370 1369 1361 1358 1364 1368 1373 1375 1379 1384 1389 1396 1402 1408 1411 1414 1418 1422 1427 1433 1438 1442 1450 1459 1469 1481 1489 1495 1501 1508 1514 1519 1523 1529 1535 1539 1544 1549
1365 1369 1357 1369 1362 1362 1345 1359 1384 1388 1386 1384 1378 1368 1363 1361 1366 1373 1375 1374 1381 1386 1390 1397 1402 1405 1411 1416 1421 1422 1427 1432 1438 1445 1454 1461 1471 1480 1488 1495 1503 1509 1514 1519 1525 1529 1535 1540 1544
1366 1364 1360 1384 1366 1346 1335 1349 1390 1392 1392 1388 1384 1378 1374 1369 1368 1369 1374 1372 1377 1381 1387 1393 1399 1402 1409 1413 1417 1422 1426 1431 1436 1444 1451 1457 1465 1473 1484 1492 1499 1504 1508 1515 1520 1526 1531 1535 1540
1367 1355 1354 1356 1371 1343 1359 1381 1385 1393 1393 1393 1389 1383 1380 1376 1374 1369 1376 1377 1370 1377 1381 1388 1396 1401 1405 1411 1415 1420 1424 1428 1432 1439 1445 1453 1459 1467 1478 1486 1492 1497 1504 1509 1515 1520 1525 1531 1535
1385 1380 1363 1346 1370 1343 1356 1376 1392 1400 1400 1399 1394 1391 1385 1380 1372 1371 1367 1369 1374 1375 1377 1384 1392 1397 1402 1407 1412 1417 1421 1424 1430 1434 1438 1445 1453 1462 1470 1478 1485 1491 1496 1503 1509 1513 1518 1524 1529
1397 1400 1395 1382 1359 1348 1358 1393 1413 1413 1410 1406 1402 1399 1397 1388 1384 1380 1377 1380 1377 1375 1378 1382 1389 1395 1401 1407 1410 1414 1419 1422 1427 1432 1437 1441 1448 1456 1463 1471 1480 1485 1491 1497 1503 1508 1513 1519 1523
1414 1417 1411 1394 1360 1378 1370 1414 1422 1419 1416 1412 1408 1405 1399 1396 1390 1385 1387 1381 1376 1378 1378 1380 1386 1389 1396 1399 1405 1410 1417 1422 1425 1429 1434 1438 1445 1453 1459 1466 1473 1479 1487 1492 1496 1501 1506 1510 1515